MXD38F WIII-WMKK

Flight info

Callsign MXD38F
Flight time 1h 44m
Altitude 36000
Route DOLTA T25 GUSKO A585 PLB G579 VJB A457 GUPTA GUPTA1J
Aircraft B38M/M-SDE1FGHILORVWXY/HB1

Departure

Time 2026-05-07 05:36
Airport Soekarno-Hatta International Airport (WIII)

Arrival

Time 2026-05-07 07:20
Airport Kuala Lumpur International Airport (WMKK)
Time Latitude Longitude Altitude Speed Heading
2026-05-07 05:10 -6.12065 106.65642 40 ft 0 kts 247°
2026-05-07 05:25 -6.12063 106.65647 39 ft 2 kts 247°
2026-05-07 05:25 -6.12055 106.65665 40 ft 3 kts 247°
2026-05-07 05:25 -6.12047 106.65683 40 ft 3 kts 247°
2026-05-07 05:26 -6.12041 106.65698 40 ft 3 kts 255°
2026-05-07 05:26 -6.12040 106.65715 39 ft 3 kts 300°
2026-05-07 05:26 -6.12053 106.65726 40 ft 3 kts 335°
2026-05-07 05:26 -6.12065 106.65731 40 ft 1 kts 339°
2026-05-07 05:27 -6.12067 106.65732 40 ft 0 kts 339°
2026-05-07 05:29 -6.12065 106.65731 40 ft 2 kts 339°
2026-05-07 05:29 -6.12030 106.65718 40 ft 10 kts 339°
2026-05-07 05:29 -6.11937 106.65678 40 ft 20 kts 336°
2026-05-07 05:29 -6.11778 106.65616 38 ft 23 kts 339°
2026-05-07 05:30 -6.11666 106.65572 40 ft 14 kts 331°
2026-05-07 05:30 -6.11640 106.65499 40 ft 10 kts 253°
2026-05-07 05:30 -6.11669 106.65439 40 ft 11 kts 243°
2026-05-07 05:30 -6.11709 106.65340 40 ft 20 kts 250°
2026-05-07 05:31 -6.11763 106.65194 41 ft 24 kts 244°
2026-05-07 05:31 -6.11831 106.65026 41 ft 27 kts 248°
2026-05-07 05:31 -6.11905 106.64838 39 ft 30 kts 249°
2026-05-07 05:31 -6.11989 106.64635 40 ft 33 kts 247°
2026-05-07 05:32 -6.12075 106.64417 40 ft 34 kts 248°
2026-05-07 05:32 -6.12163 106.64194 39 ft 34 kts 246°
2026-05-07 05:32 -6.12250 106.63976 41 ft 33 kts 248°
2026-05-07 05:32 -6.12269 106.63881 41 ft 5 kts 300°
2026-05-07 05:33 -6.12226 106.63857 41 ft 12 kts 359°
2026-05-07 05:33 -6.12120 106.63901 41 ft 18 kts 31°
2026-05-07 05:33 -6.12069 106.63941 40 ft 9 kts 64°
2026-05-07 05:33 -6.12067 106.63946 40 ft 0 kts 68°
2026-05-07 05:35 -6.12031 106.64037 40 ft 40 kts 68°
2026-05-07 05:35 -6.11855 106.64478 41 ft 94 kts 68°
2026-05-07 05:35 -6.11551 106.65239 41 ft 140 kts 68°
2026-05-07 05:35 -6.11145 106.66254 87 ft 173 kts 70°
2026-05-07 05:36 -6.10687 106.67442 418 ft 188 kts 68°
2026-05-07 05:36 -6.10269 106.68647 1184 ft 178 kts 71°
2026-05-07 05:36 -6.09702 106.69799 1665 ft 189 kts 52°
2026-05-07 05:36 -6.08684 106.70684 2164 ft 199 kts 27°
2026-05-07 05:37 -6.07307 106.71064 2617 ft 214 kts 12°
2026-05-07 05:37 -6.05766 106.70942 2974 ft 237 kts 336°
2026-05-07 05:37 -6.04477 106.69818 3378 ft 254 kts 307°
2026-05-07 05:37 -6.03246 106.68496 4024 ft 265 kts 320°
2026-05-07 05:38 -6.01780 106.67313 4363 ft 285 kts 321°
2026-05-07 05:38 -6.00256 106.66071 5396 ft 274 kts 321°
2026-05-07 05:38 -5.98815 106.64875 6429 ft 271 kts 320°
2026-05-07 05:38 -5.97348 106.63652 6992 ft 283 kts 320°
2026-05-07 05:39 -5.95801 106.62361 7566 ft 290 kts 320°
2026-05-07 05:39 -5.94265 106.61072 8306 ft 292 kts 320°
2026-05-07 05:39 -5.92705 106.59762 8940 ft 297 kts 320°
2026-05-07 05:39 -5.91126 106.58433 9583 ft 300 kts 320°
2026-05-07 05:40 -5.89514 106.57079 10209 ft 305 kts 320°
2026-05-07 05:40 -5.87853 106.55684 10621 ft 318 kts 320°
2026-05-07 05:40 -5.86122 106.54234 11019 ft 331 kts 320°
2026-05-07 05:40 -5.84321 106.52725 11462 ft 341 kts 320°
2026-05-07 05:41 -5.82491 106.51188 12151 ft 345 kts 320°
2026-05-07 05:41 -5.80631 106.49625 12760 ft 351 kts 320°
2026-05-07 05:41 -5.78750 106.48043 13473 ft 354 kts 320°
2026-05-07 05:41 -5.76878 106.46471 14166 ft 357 kts 320°
2026-05-07 05:42 -5.74967 106.44864 14890 ft 360 kts 320°
2026-05-07 05:42 -5.73041 106.43246 15582 ft 363 kts 320°
2026-05-07 05:42 -5.71089 106.41604 16218 ft 366 kts 320°
2026-05-07 05:42 -5.69126 106.39954 16884 ft 369 kts 321°
2026-05-07 05:43 -5.67151 106.38294 17494 ft 372 kts 321°
2026-05-07 05:43 -5.65157 106.36618 18126 ft 374 kts 321°
2026-05-07 05:43 -5.63152 106.34933 18690 ft 378 kts 321°
2026-05-07 05:43 -5.61155 106.33254 19262 ft 380 kts 321°
2026-05-07 05:44 -5.59121 106.31546 19794 ft 383 kts 321°
2026-05-07 05:44 -5.57069 106.29821 20316 ft 386 kts 320°
2026-05-07 05:44 -5.55001 106.28083 20824 ft 388 kts 321°
2026-05-07 05:44 -5.52911 106.26327 21315 ft 391 kts 320°
2026-05-07 05:45 -5.50821 106.24572 21795 ft 394 kts 320°
2026-05-07 05:45 -5.48735 106.22820 22263 ft 396 kts 320°
2026-05-07 05:45 -5.46615 106.21039 22726 ft 398 kts 320°
2026-05-07 05:45 -5.44476 106.19243 22896 ft 401 kts 320°
2026-05-07 05:46 -5.42338 106.17448 22885 ft 400 kts 320°
2026-05-07 05:46 -5.40209 106.15660 22894 ft 399 kts 320°
2026-05-07 05:46 -5.38071 106.13865 22899 ft 399 kts 320°
2026-05-07 05:46 -5.35939 106.12074 22890 ft 399 kts 320°
2026-05-07 05:47 -5.33814 106.10292 22893 ft 398 kts 320°
2026-05-07 05:47 -5.31712 106.08527 22889 ft 399 kts 320°
2026-05-07 05:47 -5.29580 106.06737 22900 ft 399 kts 320°
2026-05-07 05:47 -5.27445 106.04945 22900 ft 399 kts 320°
2026-05-07 05:48 -5.25312 106.03153 22899 ft 400 kts 320°
2026-05-07 05:48 -5.23179 106.01365 22907 ft 400 kts 320°
2026-05-07 05:48 -5.21043 105.99573 22904 ft 400 kts 320°
2026-05-07 05:48 -5.18906 105.97780 22911 ft 400 kts 320°
2026-05-07 05:49 -5.16770 105.95987 22909 ft 399 kts 321°
2026-05-07 05:49 -5.14636 105.94198 22909 ft 399 kts 320°
2026-05-07 05:49 -5.12468 105.92455 22994 ft 400 kts 328°
2026-05-07 05:49 -5.10078 105.91082 23662 ft 394 kts 331°
2026-05-07 05:50 -5.07690 105.89706 23918 ft 402 kts 330°
2026-05-07 05:50 -5.05259 105.88314 24254 ft 405 kts 331°
2026-05-07 05:50 -5.02806 105.86914 24677 ft 408 kts 331°
2026-05-07 05:50 -5.00331 105.85503 25032 ft 411 kts 331°
2026-05-07 05:51 -4.97835 105.84081 25425 ft 413 kts 331°
2026-05-07 05:51 -4.95339 105.82659 25791 ft 415 kts 331°
2026-05-07 05:51 -4.92811 105.81219 26153 ft 418 kts 331°
2026-05-07 05:51 -4.90281 105.79778 26538 ft 419 kts 331°
2026-05-07 05:52 -4.87728 105.78325 26901 ft 421 kts 331°
2026-05-07 05:52 -4.85165 105.76865 27253 ft 424 kts 331°
2026-05-07 05:52 -4.82601 105.75405 27600 ft 425 kts 331°
2026-05-07 05:52 -4.80046 105.73950 27934 ft 428 kts 331°
2026-05-07 05:53 -4.77449 105.72472 28264 ft 429 kts 331°
2026-05-07 05:53 -4.74840 105.70987 28565 ft 432 kts 331°
2026-05-07 05:53 -4.72218 105.69495 28863 ft 434 kts 331°
2026-05-07 05:53 -4.69593 105.68001 29190 ft 435 kts 331°
2026-05-07 05:54 -4.66961 105.66502 29493 ft 437 kts 331°
2026-05-07 05:54 -4.64314 105.64996 29770 ft 439 kts 331°
2026-05-07 05:54 -4.61633 105.63471 30056 ft 441 kts 331°
2026-05-07 05:54 -4.58996 105.61970 30340 ft 442 kts 331°
2026-05-07 05:55 -4.56310 105.60443 30607 ft 445 kts 331°
2026-05-07 05:55 -4.53614 105.58909 30862 ft 447 kts 331°
2026-05-07 05:55 -4.50900 105.57366 31120 ft 449 kts 331°
2026-05-07 05:55 -4.48178 105.55817 31368 ft 451 kts 331°
2026-05-07 05:56 -4.45451 105.54269 31661 ft 451 kts 331°
2026-05-07 05:56 -4.42712 105.52710 31858 ft 455 kts 331°
2026-05-07 05:56 -4.39956 105.51142 32084 ft 457 kts 331°
2026-05-07 05:56 -4.37181 105.49565 32333 ft 458 kts 332°
2026-05-07 05:57 -4.34394 105.47981 32545 ft 460 kts 332°
2026-05-07 05:57 -4.31600 105.46392 32760 ft 462 kts 332°
2026-05-07 05:57 -4.28797 105.44799 33014 ft 464 kts 332°
2026-05-07 05:57 -4.25979 105.43197 33188 ft 467 kts 332°
2026-05-07 05:58 -4.23161 105.41595 33533 ft 465 kts 332°
2026-05-07 05:58 -4.20343 105.39995 33797 ft 465 kts 332°
2026-05-07 05:58 -4.17563 105.38415 34054 ft 465 kts 332°
2026-05-07 05:58 -4.14727 105.36804 34357 ft 465 kts 332°
2026-05-07 05:59 -4.12859 105.35742 34554 ft 465 kts 332°
2026-05-07 05:59 -4.09144 105.33633 34965 ft 463 kts 332°
2026-05-07 05:59 -4.07252 105.32558 35130 ft 464 kts 332°
2026-05-07 05:59 -4.03530 105.30444 35473 ft 464 kts 332°
2026-05-07 06:00 -4.00717 105.28846 35739 ft 464 kts 332°
2026-05-07 06:00 -3.97908 105.27251 35903 ft 464 kts 332°
2026-05-07 06:00 -3.95097 105.25654 35901 ft 463 kts 332°
2026-05-07 06:01 -3.90442 105.23023 35907 ft 462 kts 332°
2026-05-07 06:01 -3.84827 105.19863 35906 ft 463 kts 333°
2026-05-07 06:02 -3.79202 105.16694 35908 ft 463 kts 333°
2026-05-07 06:02 -3.73615 105.13548 35913 ft 463 kts 332°
2026-05-07 06:03 -3.68009 105.10392 35915 ft 463 kts 332°
2026-05-07 06:03 -3.62384 105.07226 35919 ft 463 kts 332°
2026-05-07 06:04 -3.56770 105.04066 35916 ft 462 kts 333°
2026-05-07 06:04 -3.51156 105.00907 35918 ft 463 kts 332°
2026-05-07 06:05 -3.45560 104.97759 35918 ft 463 kts 332°
2026-05-07 06:05 -3.39975 104.94615 35917 ft 462 kts 332°
2026-05-07 06:06 -3.34352 104.91454 35913 ft 463 kts 332°
2026-05-07 06:06 -3.28733 104.88294 35916 ft 463 kts 332°
2026-05-07 06:07 -3.24069 104.85671 35915 ft 463 kts 333°
2026-05-07 06:07 -3.20310 104.83557 35914 ft 463 kts 333°
2026-05-07 06:08 -3.11878 104.78816 35915 ft 463 kts 333°
2026-05-07 06:08 -3.06284 104.75671 35916 ft 463 kts 332°
2026-05-07 06:09 -3.00673 104.72517 35918 ft 463 kts 333°
2026-05-07 06:09 -2.95050 104.69357 35901 ft 463 kts 333°
2026-05-07 06:10 -2.89420 104.66213 35914 ft 462 kts 336°
2026-05-07 06:10 -2.86404 104.65165 35916 ft 456 kts 351°
2026-05-07 06:10 -2.83290 104.64525 35901 ft 458 kts 350°
2026-05-07 06:11 -2.77038 104.63280 35914 ft 458 kts 351°
2026-05-07 06:11 -2.70816 104.62095 35915 ft 458 kts 351°
2026-05-07 06:12 -2.64537 104.60908 35918 ft 458 kts 351°
2026-05-07 06:12 -2.58270 104.59723 35917 ft 458 kts 351°
2026-05-07 06:13 -2.52002 104.58539 35916 ft 458 kts 351°
2026-05-07 06:13 -2.45757 104.57359 35914 ft 458 kts 351°
2026-05-07 06:14 -2.39481 104.56173 35913 ft 458 kts 351°
2026-05-07 06:14 -2.33197 104.54985 35916 ft 458 kts 351°
2026-05-07 06:15 -2.26967 104.53809 35918 ft 458 kts 351°
2026-05-07 06:15 -2.20699 104.52625 35915 ft 458 kts 351°
2026-05-07 06:16 -2.14430 104.51441 35919 ft 458 kts 351°
2026-05-07 06:16 -2.08167 104.50258 35909 ft 458 kts 351°
2026-05-07 06:17 -2.01925 104.49078 35911 ft 458 kts 352°
2026-05-07 06:17 -1.95652 104.47894 35915 ft 458 kts 351°
2026-05-07 06:18 -1.89376 104.46709 35917 ft 459 kts 351°
2026-05-07 06:18 -1.83104 104.45525 35917 ft 459 kts 351°
2026-05-07 06:19 -1.76826 104.44340 35923 ft 459 kts 351°
2026-05-07 06:19 -1.70553 104.43156 35918 ft 459 kts 351°
2026-05-07 06:20 -1.64302 104.41975 35916 ft 459 kts 352°
2026-05-07 06:20 -1.58006 104.40787 35915 ft 459 kts 351°
2026-05-07 06:21 -1.51720 104.39601 35916 ft 460 kts 352°
2026-05-07 06:21 -1.45461 104.38420 35913 ft 460 kts 352°
2026-05-07 06:22 -1.39166 104.37231 35917 ft 460 kts 351°
2026-05-07 06:22 -1.29718 104.35448 35917 ft 461 kts 351°
2026-05-07 06:23 -1.23412 104.34259 35917 ft 461 kts 351°
2026-05-07 06:23 -1.17101 104.33068 35916 ft 461 kts 351°
2026-05-07 06:24 -1.10835 104.31886 35910 ft 462 kts 351°
2026-05-07 06:24 -1.04495 104.30689 35913 ft 462 kts 351°
2026-05-07 06:25 -0.98177 104.29498 35915 ft 462 kts 352°
2026-05-07 06:25 -0.91837 104.28301 35919 ft 463 kts 352°
2026-05-07 06:26 -0.85539 104.27113 35916 ft 463 kts 352°
2026-05-07 06:26 -0.79182 104.25914 35918 ft 464 kts 351°
2026-05-07 06:27 -0.72828 104.24715 35910 ft 464 kts 351°
2026-05-07 06:27 -0.66513 104.23524 35888 ft 464 kts 351°
2026-05-07 06:28 -0.60151 104.22324 35907 ft 464 kts 351°
2026-05-07 06:28 -0.53799 104.21085 35906 ft 465 kts 351°
2026-05-07 06:29 -0.47444 104.19822 35907 ft 466 kts 351°
2026-05-07 06:29 -0.41117 104.18566 35904 ft 466 kts 351°
2026-05-07 06:30 -0.34744 104.17304 35907 ft 466 kts 351°
2026-05-07 06:30 -0.28400 104.16045 35906 ft 466 kts 351°
2026-05-07 06:31 -0.22014 104.14779 35907 ft 466 kts 351°
2026-05-07 06:31 -0.15690 104.13525 35907 ft 466 kts 351°
2026-05-07 06:32 -0.09315 104.12263 35906 ft 467 kts 351°
2026-05-07 06:32 -0.02963 104.11002 35905 ft 466 kts 351°
2026-05-07 06:33 0.03405 104.09739 35905 ft 467 kts 351°
2026-05-07 06:33 0.09800 104.08471 35906 ft 467 kts 351°
2026-05-07 06:34 0.16163 104.07209 35904 ft 467 kts 351°
2026-05-07 06:34 0.22521 104.05950 35901 ft 466 kts 351°
2026-05-07 06:35 0.28902 104.04685 35907 ft 466 kts 351°
2026-05-07 06:35 0.35242 104.03428 35906 ft 466 kts 351°
2026-05-07 06:36 0.41596 104.02170 35912 ft 467 kts 351°
2026-05-07 06:36 0.47975 104.00905 35907 ft 467 kts 351°
2026-05-07 06:37 0.54354 103.99642 35906 ft 466 kts 351°
2026-05-07 06:37 0.60688 103.98384 35905 ft 466 kts 351°
2026-05-07 06:38 0.67074 103.97116 35906 ft 467 kts 351°
2026-05-07 06:38 0.73413 103.95839 35916 ft 467 kts 350°
2026-05-07 06:39 0.79772 103.94495 35915 ft 467 kts 350°
2026-05-07 06:39 0.86131 103.93158 35910 ft 467 kts 350°
2026-05-07 06:40 0.92529 103.91813 35915 ft 467 kts 350°
2026-05-07 06:40 0.98877 103.90477 35915 ft 467 kts 350°
2026-05-07 06:41 1.05236 103.89133 35914 ft 467 kts 350°
2026-05-07 06:41 1.11558 103.87796 35915 ft 467 kts 350°
2026-05-07 06:42 1.17928 103.86445 35936 ft 467 kts 349°
2026-05-07 06:42 1.24116 103.84482 35936 ft 470 kts 333°
2026-05-07 06:43 1.29940 103.81463 35946 ft 472 kts 335°
2026-05-07 06:43 1.35761 103.78487 35928 ft 472 kts 335°
2026-05-07 06:44 1.41626 103.75491 35917 ft 472 kts 335°
2026-05-07 06:44 1.47468 103.72494 35917 ft 473 kts 335°
2026-05-07 06:45 1.53513 103.70116 35917 ft 469 kts 345°
2026-05-07 06:45 1.59737 103.68165 35913 ft 469 kts 345°
2026-05-07 06:46 1.62813 103.67019 35904 ft 471 kts 334°
2026-05-07 06:46 1.65540 103.65196 35920 ft 474 kts 319°
2026-05-07 06:46 1.67745 103.62726 35906 ft 475 kts 303°
2026-05-07 06:46 1.69353 103.59832 35920 ft 477 kts 297°
2026-05-07 06:47 1.72342 103.53941 35919 ft 479 kts 297°
2026-05-07 06:47 1.75299 103.47954 35915 ft 479 kts 296°
2026-05-07 06:48 1.77728 103.43006 35780 ft 471 kts 296°
2026-05-07 06:48 1.79616 103.39157 35454 ft 461 kts 296°
2026-05-07 06:48 1.81028 103.36280 35197 ft 459 kts 296°
2026-05-07 06:49 1.82429 103.33423 34934 ft 457 kts 296°
2026-05-07 06:49 1.83825 103.30578 34676 ft 454 kts 296°
2026-05-07 06:49 1.84743 103.28706 34447 ft 451 kts 297°
2026-05-07 06:49 1.86120 103.25899 33851 ft 451 kts 297°
2026-05-07 06:50 1.87504 103.23078 33282 ft 451 kts 297°
2026-05-07 06:50 1.89341 103.19331 32659 ft 446 kts 297°
2026-05-07 06:50 1.90247 103.17483 32346 ft 444 kts 297°
2026-05-07 06:50 1.91603 103.14719 31858 ft 442 kts 297°
2026-05-07 06:51 1.92954 103.11963 31353 ft 439 kts 297°
2026-05-07 06:51 1.94294 103.09229 30855 ft 436 kts 297°
2026-05-07 06:51 1.95627 103.06511 30366 ft 433 kts 297°
2026-05-07 06:51 1.96949 103.03812 29890 ft 431 kts 297°
2026-05-07 06:52 1.98266 103.01128 29394 ft 428 kts 297°
2026-05-07 06:52 1.99570 102.98468 28920 ft 424 kts 297°
2026-05-07 06:52 2.00853 102.95851 28446 ft 421 kts 297°
2026-05-07 06:52 2.02142 102.93219 27968 ft 418 kts 297°
2026-05-07 06:53 2.03404 102.90645 27503 ft 415 kts 297°
2026-05-07 06:53 2.04674 102.88053 27023 ft 413 kts 297°
2026-05-07 06:53 2.05930 102.85479 26499 ft 411 kts 297°
2026-05-07 06:53 2.07179 102.82920 26076 ft 407 kts 297°
2026-05-07 06:54 2.08414 102.80388 25622 ft 404 kts 297°
2026-05-07 06:54 2.09642 102.77875 25175 ft 401 kts 297°
2026-05-07 06:54 2.10861 102.75377 24724 ft 398 kts 297°
2026-05-07 06:54 2.12071 102.72897 24276 ft 395 kts 297°
2026-05-07 06:55 2.13272 102.70438 23834 ft 393 kts 297°
2026-05-07 06:55 2.14470 102.67984 23387 ft 390 kts 297°
2026-05-07 06:55 2.15644 102.65582 22956 ft 388 kts 298°
2026-05-07 06:55 2.17160 102.63374 22484 ft 381 kts 317°
2026-05-07 06:56 2.19031 102.61549 22251 ft 372 kts 316°
2026-05-07 06:56 2.20834 102.59729 21925 ft 367 kts 316°
2026-05-07 06:56 2.22634 102.57930 21537 ft 363 kts 317°
2026-05-07 06:56 2.24419 102.56155 21162 ft 360 kts 317°
2026-05-07 06:57 2.26184 102.54404 20786 ft 355 kts 317°
2026-05-07 06:57 2.27932 102.52669 20420 ft 352 kts 317°
2026-05-07 06:57 2.29670 102.50947 20053 ft 349 kts 317°
2026-05-07 06:57 2.31387 102.49244 19693 ft 346 kts 317°
2026-05-07 06:58 2.33067 102.47578 19342 ft 342 kts 317°
2026-05-07 06:58 2.34752 102.45906 18982 ft 339 kts 317°
2026-05-07 06:58 2.36420 102.44254 18632 ft 335 kts 317°
2026-05-07 06:58 2.37858 102.42423 18216 ft 335 kts 297°
2026-05-07 06:59 2.38518 102.40205 17876 ft 333 kts 275°
2026-05-07 06:59 2.38316 102.37930 17537 ft 328 kts 253°
2026-05-07 06:59 2.37590 102.35818 17210 ft 323 kts 247°
2026-05-07 06:59 2.36426 102.33931 16838 ft 317 kts 224°
2026-05-07 07:00 2.34659 102.32694 16538 ft 307 kts 200°
2026-05-07 07:00 2.32636 102.32103 16239 ft 302 kts 191°
2026-05-07 07:00 2.30580 102.31620 15924 ft 305 kts 191°
2026-05-07 07:00 2.28506 102.31156 15612 ft 305 kts 190°
2026-05-07 07:01 2.26481 102.30510 15248 ft 307 kts 207°
2026-05-07 07:01 2.24659 102.29384 14947 ft 305 kts 210°
2026-05-07 07:01 2.22859 102.28281 14631 ft 302 kts 210°
2026-05-07 07:01 2.21081 102.27188 14340 ft 298 kts 210°
2026-05-07 07:02 2.19347 102.26118 14030 ft 295 kts 211°
2026-05-07 07:02 2.17817 102.24741 13677 ft 296 kts 231°
2026-05-07 07:02 2.16553 102.23121 13364 ft 295 kts 230°
2026-05-07 07:02 2.15271 102.21508 13067 ft 296 kts 230°
2026-05-07 07:03 2.14015 102.19922 12919 ft 293 kts 230°
2026-05-07 07:03 2.12756 102.18306 12911 ft 295 kts 234°
2026-05-07 07:03 2.11926 102.16430 12902 ft 297 kts 252°
2026-05-07 07:03 2.11278 102.14446 12380 ft 305 kts 250°
2026-05-07 07:04 2.10596 102.12411 11773 ft 312 kts 251°
2026-05-07 07:04 2.09908 102.10337 11332 ft 312 kts 251°
2026-05-07 07:04 2.09348 102.08259 11002 ft 308 kts 265°
2026-05-07 07:04 2.09377 102.06130 10682 ft 304 kts 272°
2026-05-07 07:05 2.09468 102.04035 10377 ft 299 kts 277°
2026-05-07 07:05 2.10078 102.02107 10030 ft 294 kts 303°
2026-05-07 07:05 2.11455 102.00666 9741 ft 284 kts 329°
2026-05-07 07:05 2.13252 101.99974 9495 ft 273 kts 354°
2026-05-07 07:06 2.15108 102.00025 9241 ft 265 kts 11°
2026-05-07 07:06 2.16944 102.00337 8946 ft 268 kts 12°
2026-05-07 07:06 2.18776 102.00674 8656 ft 267 kts 12°
2026-05-07 07:06 2.20600 102.01028 8373 ft 266 kts 13°
2026-05-07 07:07 2.22411 102.01389 8095 ft 265 kts 13°
2026-05-07 07:07 2.24219 102.01756 7819 ft 263 kts 13°
2026-05-07 07:07 2.25988 102.02119 7550 ft 262 kts 13°
2026-05-07 07:07 2.27774 102.02489 7283 ft 261 kts 13°
2026-05-07 07:08 2.29558 102.02860 7013 ft 260 kts 13°
2026-05-07 07:08 2.31319 102.03225 6733 ft 256 kts 13°
2026-05-07 07:08 2.33047 102.03585 6469 ft 251 kts 13°
2026-05-07 07:08 2.34743 102.03937 6231 ft 246 kts 13°
2026-05-07 07:09 2.36406 102.03970 6217 ft 235 kts 346°
2026-05-07 07:09 2.37893 102.03238 6213 ft 249 kts 321°
2026-05-07 07:09 2.38914 102.01844 6049 ft 255 kts 290°
2026-05-07 07:09 2.39193 102.00126 5905 ft 248 kts 272°
2026-05-07 07:10 2.39307 101.98401 5385 ft 253 kts 275°
2026-05-07 07:10 2.39471 101.96599 4761 ft 267 kts 276°
2026-05-07 07:10 2.39652 101.94731 4137 ft 278 kts 275°
2026-05-07 07:10 2.39849 101.92769 3511 ft 287 kts 275°
2026-05-07 07:11 2.40049 101.90768 3109 ft 287 kts 275°
2026-05-07 07:11 2.40237 101.88853 3099 ft 271 kts 275°
2026-05-07 07:11 2.40598 101.87068 3054 ft 257 kts 297°
2026-05-07 07:11 2.41790 101.85883 3141 ft 237 kts 343°
2026-05-07 07:12 2.43277 101.85912 4113 ft 205 kts 23°
2026-05-07 07:12 2.44153 101.86240 4891 ft 204 kts 21°
2026-05-07 07:12 2.44591 101.86378 5051 ft 202 kts 20°
2026-05-07 07:13 2.45754 101.87040 5040 ft 193 kts 46°
2026-05-07 07:13 2.46638 101.88075 5017 ft 197 kts 53°
2026-05-07 07:13 2.47684 101.88971 4975 ft 201 kts 24°
2026-05-07 07:13 2.49060 101.89131 4855 ft 203 kts 350°
2026-05-07 07:14 2.50354 101.88553 4815 ft 205 kts 327°
2026-05-07 07:14 2.51530 101.87781 4802 ft 200 kts 329°
2026-05-07 07:14 2.52692 101.87020 4724 ft 198 kts 328°
2026-05-07 07:14 2.53840 101.86262 4601 ft 197 kts 328°
2026-05-07 07:15 2.54980 101.85502 4576 ft 197 kts 328°
2026-05-07 07:15 2.56115 101.84751 4571 ft 199 kts 328°
2026-05-07 07:15 2.57274 101.83981 4309 ft 199 kts 328°
2026-05-07 07:15 2.58426 101.83209 4046 ft 199 kts 327°
2026-05-07 07:16 2.59583 101.82436 3791 ft 201 kts 328°
2026-05-07 07:16 2.60729 101.81665 3459 ft 202 kts 327°
2026-05-07 07:16 2.61895 101.80888 3163 ft 199 kts 328°
2026-05-07 07:16 2.63082 101.80114 2672 ft 208 kts 329°
2026-05-07 07:17 2.64280 101.79316 2491 ft 209 kts 328°
2026-05-07 07:17 2.65459 101.78522 2261 ft 203 kts 327°
2026-05-07 07:17 2.66610 101.77745 2017 ft 189 kts 327°
2026-05-07 07:17 2.67647 101.77048 1780 ft 170 kts 327°
2026-05-07 07:18 2.68597 101.76408 1556 ft 158 kts 326°
2026-05-07 07:18 2.69470 101.75817 1355 ft 149 kts 327°
2026-05-07 07:18 2.70338 101.75232 1154 ft 151 kts 326°
2026-05-07 07:18 2.71199 101.74653 956 ft 151 kts 326°
2026-05-07 07:19 2.72057 101.74051 650 ft 149 kts 324°
2026-05-07 07:19 2.72898 101.73459 570 ft 146 kts 326°
2026-05-07 07:19 2.73770 101.72922 408 ft 148 kts 328°
2026-05-07 07:19 2.74616 101.72355 191 ft 146 kts 327°
2026-05-07 07:20 2.75444 101.71797 89 ft 135 kts 326°
2026-05-07 07:20 2.76123 101.71343 74 ft 89 kts 326°
2026-05-07 07:20 2.76455 101.71104 70 ft 32 kts 314°
2026-05-07 07:20 2.76576 101.70929 69 ft 15 kts 289°
2026-05-07 07:21 2.76565 101.70854 67 ft 8 kts 214°
2026-05-07 07:21 2.76514 101.70854 67 ft 8 kts 149°
2026-05-07 07:21 2.76464 101.70886 68 ft 10 kts 147°
2026-05-07 07:21 2.76399 101.70928 68 ft 13 kts 147°
2026-05-07 07:22 2.76312 101.70983 68 ft 17 kts 147°
2026-05-07 07:22 2.76209 101.71050 70 ft 18 kts 146°
2026-05-07 07:22 2.76103 101.71121 72 ft 18 kts 143°
2026-05-07 07:22 2.75995 101.71200 73 ft 20 kts 143°
2026-05-07 07:23 2.75875 101.71283 76 ft 21 kts 145°
2026-05-07 07:23 2.75750 101.71369 76 ft 23 kts 145°
2026-05-07 07:23 2.75611 101.71459 75 ft 25 kts 147°
2026-05-07 07:23 2.75461 101.71557 74 ft 27 kts 146°
2026-05-07 07:24 2.75298 101.71667 74 ft 29 kts 141°
2026-05-07 07:24 2.75134 101.71782 75 ft 30 kts 145°
2026-05-07 07:24 2.74959 101.71893 79 ft 29 kts 150°
2026-05-07 07:24 2.74808 101.71994 81 ft 21 kts 145°
2026-05-07 07:25 2.74628 101.71885 75 ft 22 kts 235°
2026-05-07 07:25 2.74542 101.71750 75 ft 24 kts 238°
2026-05-07 07:25 2.74448 101.71607 75 ft 26 kts 235°
2026-05-07 07:26 2.74379 101.71509 75 ft 13 kts 236°
2026-05-07 07:26 2.74388 101.71455 75 ft 7 kts 320°
2026-05-07 07:26 2.74434 101.71426 75 ft 9 kts 326°
2026-05-07 07:26 2.74494 101.71386 75 ft 11 kts 326°
2026-05-07 07:27 2.74567 101.71338 75 ft 14 kts 326°
2026-05-07 07:27 2.74593 101.71321 75 ft 3 kts 327°
2026-05-07 07:27 2.74618 101.71304 75 ft 6 kts 327°
2026-05-07 07:27 2.74637 101.71292 75 ft 0 kts 326°
2026-05-07 07:28 2.74646 101.71286 75 ft 2 kts 327°
2026-05-07 07:28 2.74654 101.71281 75 ft 0 kts 326°
2026-05-07 07:29 2.74661 101.71276 75 ft 0 kts 326°
2026-05-07 07:30 2.75462 101.70725 75 ft 0 kts 146°